Погода в Долгом

Россия / Калужская область     54°33′11″N   34°32′48″E
темп.,
°C
ветер,
м/с
пор.,
м/с
влажн.,
%
обл.,
%
осадки,
мм/ч
давл.,
гПа
погр.,
м
25 июля, вс
вс2500:00+12в117512 0.0 101811
03:00+11всв118117 0.0 101910
06:00+12в11797 0.0 102011
09:00+19вюв115415 0.0 1020424
12:00+21ююв1147100 0.0 10201358
15:00+24ююз133976 0.0 10202296
18:00+21вюв1264100 0.0 102067
21:00+17ю257230 0.0 1021107
26 июля, пн
пн2600:00+15ююв227278 0.0 102232
03:00+17ю2469100 0.0 1022107
06:00+16ююв2273100 0.0 102262
09:00+18ююз2376100 0.0 1023165
12:00+24ююз23521 0.0 1023877
15:00+26ююз234065 0.0 10222031
18:00+23ююз1362100 0.0 102194
21:00+18ююз227816 0.0 102220
27 июля, вт
вт2700:00+16ююз11863 0.0 102213
03:00+16юз11875 0.0 102312
06:00+16ююз22835 0.0 102336
09:00+22ююз246160 0.0 1022503
12:00+26ююз234557 0.0 10211472
15:00+27ююз244478 0.0 10201296
18:00+27юз35464 0.0 1019847
21:00+20юв117112 0.0 101811
28 июля, ср
ср2800:00+18ю397599 0.0 1018178
03:00+18ююз3117099 0.0 1018333
06:00+18вюв2372100 0.0 101567
09:00+16юв2593100 0.9 1015131
12:00+16юв5119494 0.8 1014418
15:00+22ю5870100 1.1 10111189
18:00+19ю379699 1.8 1010393
21:00+19з3119741 2.7 1009529
29 июля, чт
чт2900:00+17зюз310976 0.0 1010269
03:00+16зюз28982 0.0 1009166
06:00+16зюз29971 0.1 1009224
09:00+21з49725 0.1 1010523
12:00+26зсз584928 0.0 10091868
15:00+27зсз57395 0.0 10092195
18:00+26з484740 0.0 10091801
21:00+21зюз286293 0.0 1009209